Location: Home
(42.5358°N, 72.7383°W)
Time: 14:04:55
(UTC-05:00)

Tiangong - Visible Passes

Search period start: 04 December 2022 00:00
Search period end: 14 December 2022 00:00
Orbit: 386 x 394 km, 41.5° (Epoch: 04 December)

Date Brightness Start Highest point End Pass type
(mag) Time Alt. Az. Time Alt. Az. Time Alt. Az.
04 Dec -2.0 17:36:03 10° WSW 17:39:13 70° S 17:40:34 31° E visible
05 Dec -1.6 18:14:53 10° W 18:17:36 57° WSW 18:17:36 57° WSW visible
06 Dec -2.0 17:16:48 10° W 17:19:58 75° S 17:22:20 17° E visible
06 Dec 0.9 18:53:44 10° W 18:54:39 17° W 18:54:39 17° W visible
07 Dec -1.7 17:55:34 10° W 17:58:42 56° SSW 17:59:25 43° SE visible
08 Dec -1.8 16:57:24 10° W 17:00:33 68° S 17:03:44 10° ESE visible
08 Dec 0.1 18:34:30 10° W 18:36:33 25° SW 18:36:33 25° SW visible
09 Dec -0.9 17:36:09 10° W 17:39:09 39° SSW 17:41:29 15° SE visible
10 Dec 0.5 18:15:21 10° WSW 18:17:30 17° SSW 18:18:53 13° S visible
11 Dec 0.1 17:16:40 10° W 17:19:22 25° SSW 17:22:04 10° SE visible
13 Dec 0.9 16:57:21 10° WSW 16:59:22 16° SSW 17:01:22 10° S visible
